Location: Gugi
(45.4667°N, 11.1000°E)
Time: 05:36:53
(UTC+00:00)

Tsikada Rocket - Pass Details

Date: 17 November 2019
Orbit: 958 x 1009 km, 82.9° (Epoch: 07 December)

Event Time Altitude Azimuth Distance (km) Brightness Sun altitude
Rises 18:09:57 0° 195° (SSW) 3,701 7.2 -25.5°
Reaches altitude 10° 18:12:28 10° 198° (SSW) 2,762 6.6 -25.9°
Maximum altitude 18:18:47 66° 281° (W) 1,092 4.3 -27.0°
Drops below altitude 10° 18:25:12 10° 3° (N) 2,797 6.4 -28.2°
Sets 18:27:47 0° 7° (N) 3,752 7.0 -28.6°
